Regional Weather Roundup
Issued by NWS Wilmington, NC

Home | Current Version | Previous Version | Text Only | Print | Product List | Glossary On
Versions: 1 2 3 4 5 6 7 8 9 10 11 12 13 14 15 16 17 18 19 20 21 22 23 24 25 26 27
000
ASUS42 KILM 170110
RWRILM
RWRILM
REGIONAL HOURLY WEATHER ROUNDUP
NATIONAL WEATHER SERVICE WILMINGTON NC
900 PM EDT WED APR 16 2014

NOTE: "FAIR" INDICATES FEW OR NO CLOUDS BELOW 12,000 FEET WITH NO
SIGNIFICANT WEATHER AND/OR OBSTRUCTIONS TO VISIBILITY.

...............WFO WILMINGTON COUNTY WARNING AREA...............

......COASTAL NC AND SC COUNTIES......

CITY           SKY/WX    TMP DP  RH WIND       PRES   REMARKS
WILMINGTON     CLEAR     49  33  54 NE10      30.39R
SOUTHPORT      CLEAR     49  36  60 NE5       30.38R
N MYRTLE BEACH CLEAR     49  35  58 NE10      30.38R
MYRTLE BEACH   CLEAR     52  37  58 E9        30.37R

......INLAND NC AND SC COUNTIES.......

CITY           SKY/WX    TMP DP  RH WIND       PRES   REMARKS
LUMBERTON      CLEAR     47  31  53 NE6       30.39R
ELIZABETHTOWN  CLEAR     45  35  66 CALM      30.40R
WHITEVILLE     CLEAR     48  34  57 N3        30.38R
FLORENCE       CLEAR     46  33  60 NE7       30.37R
DARLINGTON     CLEAR     46  36  66 E5        30.39R

....................REST OF NORTH CAROLINA......................

.........EASTERN NC.........

CITY           SKY/WX    TMP DP  RH WIND       PRES   REMARKS
CAPE HATTERAS  PTCLDY    44  36  73 N14G24    30.41R
JACKSONVILLE   CLEAR     46  28  49 NE10      30.42R
MOREHEAD CITY  CLEAR     44  31  60 NE9       30.43R
KENANSVILLE    CLEAR     41  35  78 CALM      30.43R
NEW BERN       CLEAR     46  31  55 E12       30.45R
ELIZABETH CITY CLEAR     42  31  64 NE10      30.48R

.........CENTRAL NC.........

CITY           SKY/WX    TMP DP  RH WIND       PRES   REMARKS
RALEIGH DURHAM CLEAR     44  28  53 E6        30.41R
ROCKY MOUNT      N/A    N/A N/A N/A MISG      30.44R
ROANOKE RAPIDS NOT AVBL
FAYETTEVILLE   CLEAR     47  30  51 NE6       30.40R
HOFFMAN        CLEAR     48  30  49 E6        30.40R

.........WESTERN NC.........

CITY           SKY/WX    TMP DP  RH WIND       PRES   REMARKS
CHARLOTTE      CLEAR     51  25  36 E5        30.36R
GREENSBORO     CLEAR     46  23  40 NE7       30.38R
HICKORY        NOT AVBL
BOONE          NOT AVBL
ASHEVILLE      NOT AVBL

.....................REST OF SOUTH CAROLINA.....................

.........EASTERN SC.........

CITY           SKY/WX    TMP DP  RH WIND       PRES   REMARKS
CHARLESTON     CLEAR     51  38  60 E8        30.35R
BEAUFORT MCAS  CLEAR     53  42  66 SE10      30.33R
HILTON HEAD    NOT AVBL

.........CENTRAL SC.........

CITY           SKY/WX    TMP DP  RH WIND       PRES   REMARKS
COLUMBIA       CLEAR     53  31  42 E6        30.34R
ORANGEBURG     CLEAR     50  33  52 NE5       30.34R
SUMTER SHAW    CLEAR     44  32  62 NE5       30.35R

.........WESTERN SC.........

CITY           SKY/WX    TMP DP  RH WIND       PRES   REMARKS
GREENVILLE     NOT AVBL
ROCK HILL      CLEAR     44  32  62 CALM      30.36R
ANDERSON       CLEAR     48  32  53 E5        30.32R
CLEMSON        NOT AVBL
GREENWOOD      CLEAR     47  35  63 NE3       30.34R


...................COASTAL AND OFFSHORE REPORTS..................

................LOCAL PIERS AND NC RESERVE................


STATION/POSITION TIME  SKY/WX   TEMP    WIND        PRES    VSBY
                                AIR SEA DIR/SP/G
                 (UTC)          (F)     (DEG/KT/KT) (MB)    (MI)
JOHNY MRCER PIER 0100            53 61   50/ 18/ 21 1028.1R
NC RESRV MASNBRO 0000            52      70/  9     1027.0S
OCEAN CREST PIER 0100            50 63   60/  6/  7 1027.5R
SPRINGMAID  PIER 0100            53 63   60/ 17/ 20 1028.2R


................COASTAL AND OFFSHORE BUOYS................


STATION/POSITION TIME  SKY/WX   TEMP    WIND        PRES    VSBY
                                AIR SEA DIR/SP/G
                 (UTC)          (F)     (DEG/KT/KT) (MB)    (MI)
DIMNDSHOAL 41025 NOT AVBL
CAPE LOOKOUT     0000            47      50/ 23/ 26 1029.4R
ONSLOW BAY 41036 0100            49 65   40/ 25/ 31 1028.8R
WVE H/P(F/S)=  7/ 7 WND WVE H/P(F/S)=  7/ 7 SWL H/P/D(F/S/D)=  3/ 90/10

5 WRITEBCH 41038 0000            53 60   70/ 17/ 21 1027.9R
MASONBORO  41110 0100               60                N/A
WVE H/P(F/S)=  5/11 WND WVE H/P(F/S)=  5/ 6 SWL H/P/D(F/S/D)=  2/ 90/11

WILM HARBR 41108 0100               60                N/A
WVE H/P(F/S)=  5/ 5 WND WVE H/P(F/S)=  5/ 5 SWL H/P/D(F/S/D)=  2/100/12

27WRITEBCH 41037 0000            49      70/ 19/ 23 1028.2R
FRYING PAN 41013 0100            52 65   60/ 23/ 27 1027.4R
WVE H/P(F/S)=  8/ 7 WND WVE H/P(F/S)=  7/ 7 SWL H/P/D(F/S/D)=  2/ 80/11

SUNST NRSH 41024 0000            53      60/ 17/ 19 1024.0R
CAPRS NRSH 41029 0000                    80/ 17/ 21   N/A
EDISTO     41004 NOT AVBL


..........OFFSHORE BUOYS BEYOND 100 NM OFFSHORE...........
.....IN A TRIANGLE---HAT TO BERMUDA TO BAHAMAS TO HAT.....


STATION/POSITION TIME  SKY/WX   TEMP    WIND        PRES    VSBY
                                AIR SEA DIR/SP/G
                 (UTC)          (F)     (DEG/KT/KT) (MB)    (MI)
150E HAT   41001 NOT AVBL
W BERMUDA  41048 0049            70 69  150/ 12/ 14 1019.9S
WVE H/P(F/S)=  8/ 9 WND WVE H/P(F/S)=  3/ 4 SWL H/P/D(F/S/D)=  8/110/ 9

ATLANTIC S 41049 NOT AVBL
E BAHAMAS  41046 NOT AVBL
NE BAHAMAS 41047 0034            74 75  110/  8/ 10 1020.1R
WVE H/P(F/S)=  5/ 9 WND WVE H/P(F/S)=  2/ 4 SWL H/P/D(F/S/D)=  5/ 80/ 9

120E CANVRL41010 0100            72 76   50/ 19/ 21 1019.6R
WVE H/P(F/S)=  7/ 9 WND WVE H/P(F/S)=  7/ 7 SWL H/P/D(F/S/D)=  3/ 20/ 9


END



USA.gov is the U.S. government's official web portal to all federal, state and local government web resources and services.